Theta_e
295 293 292 292 294 297 294 294 294 295 297 302 301 300 298 296 295 295 294 293 293 292 292 291 291 292 292 292 293 294 296 298 301 303 304 305 307 313 317 320 327 329 330 330
292 292 292 294 295 294 293 294 294 295 296 301 300 299 297 295 294 294 293 293 292 291 291 291 291 291 291 291 290 290 291 292 295 297 299 301 303 305 307 310 314 324 328 329
291 292 294 293 293 294 294 293 293 294 296 300 299 300 297 295 294 293 292 291 291 291 291 291 291 290 290 289 289 289 289 289 290 291 294 298 301 303 305 308 310 314 321 325
292 291 292 293 293 293 295 293 293 295 295 297 301 300 298 294 294 293 291 291 291 291 291 290 290 290 288 289 289 289 289 289 289 289 289 290 292 297 299 302 304 307 308 318
293 291 290 291 292 292 294 293 294 295 296 295 297 293 299 295 294 293 291 291 291 290 290 289 290 289 289 289 289 288 288 289 289 288 288 288 289 289 293 297 301 303 307 308
291 292 290 290 291 292 293 296 294 297 296 291 293 293 294 296 293 292 290 291 290 290 290 290 289 289 289 289 288 288 288 287 288 288 288 288 288 288 289 291 296 299 302 305
291 290 291 290 291 292 293 290 282 287 286 291 293 289 292 293 292 290 290 291 290 290 290 290 289 289 289 289 288 288 288 287 287 287 288 287 287 287 287 288 288 292 298 300
288 291 289 290 291 291 292 289 285 284 289 290 291 288 291 292 291 290 290 290 290 290 290 290 289 289 289 289 289 288 288 286 286 287 287 287 287 287 287 287 287 288 289 295
286 290 290 290 291 290 290 288 291 281 274 283 290 294 295 293 291 290 290 290 290 290 290 290 289 289 289 288 288 288 287 286 286 286 286 286 287 287 287 287 287 287 288 289
288 286 290 291 291 291 290 290 286 279 280 279 287 289 292 294 293 290 290 290 290 290 290 290 289 289 289 288 288 287 286 286 286 286 286 286 286 286 286 286 287 287 287 287
288 283 288 290 288 288 289 289 287 282 284 280 283 287 284 292 292 288 289 289 289 289 289 290 289 289 288 287 287 286 286 286 286 286 286 286 286 286 286 286 286 286 287 287
288 281 282 289 288 288 290 287 286 281 283 285 286 286 289 290 289 289 289 289 289 289 289 289 289 288 288 287 287 287 287 287 286 286 286 286 286 286 286 286 286 286 286 287
287 281 278 284 285 288 288 289 288 282 279 280 281 285 288 288 288 289 289 289 289 289 289 289 288 288 288 288 287 287 287 287 286 286 286 286 286 285 286 286 286 286 286 286
289 283 282 284 284 285 287 287 285 281 276 283 285 287 288 288 288 288 288 289 288 288 289 289 288 288 288 287 287 287 287 286 286 286 286 286 286 285 286 286 286 286 286 286
287 281 283 284 286 286 288 289 289 286 286 283 288 287 288 288 288 288 288 288 287 288 288 288 288 287 287 287 287 287 287 287 286 286 286 286 285 285 286 286 286 286 286 286
287 279 280 280 283 286 287 287 287 288 288 287 287 287 288 288 288 287 288 288 287 288 288 287 287 287 287 287 287 287 287 287 286 286 286 285 285 285 285 286 286 286 286 286
283 279 276 278 280 278 281 282 286 287 286 285 285 287 288 286 287 287 288 288 288 288 287 287 288 287 287 287 287 287 287 286 286 286 285 285 285 285 285 285 285 286 286 286
278 279 277 277 274 280 286 285 285 287 287 286 287 287 287 287 288 288 288 288 288 288 288 288 288 287 287 287 287 287 286 286 286 286 285 285 285 285 285 285 285 285 286 286
286 284 279 279 272 281 286 287 285 285 286 287 286 287 287 287 286 287 288 288 288 288 288 288 287 288 287 287 287 287 286 286 286 285 285 284 284 284 284 285 285 285 286 286
285 286 286 272 278 278 284 286 287 287 286 288 288 287 287 287 284 286 288 289 288 288 288 288 288 287 287 287 286 286 286 286 286 285 285 284 283 283 284 284 285 285 285 286
281 286 288 286 285 281 284 286 287 284 288 289 289 289 289 285 287 289 288 289 288 288 288 288 287 287 287 287 286 286 286 285 285 285 284 283 283 283 283 284 284 285 285 285
280 279 279 278 278 283 287 285 286 289 290 289 290 289 289 289 288 288 289 289 288 288 288 287 287 287 287 286 285 285 285 285 284 283 283 283 283 283 283 284 284 284 285 285
283 283 282 283 283 286 287 290 290 290 290 289 289 289 289 288 288 289 289 288 288 288 287 287 287 286 286 285 283 283 282 282 282 282 282 282 282 282 282 283 283 284 284 284
284 286 284 285 288 287 287 289 290 290 289 290 289 289 289 288 289 290 289 289 288 287 287 287 286 285 285 282 281 281 281 281 281 281 281 281 282 282 282 282 283 283 283 283
288 286 287 288 289 289 289 289 290 290 289 289 289 290 289 289 290 290 289 288 287 287 286 286 285 284 281 280 280 280 280 281 280 280 280 280 281 281 282 282 282 282 283 282
290 290 289 290 291 290 290 291 290 290 290 290 290 290 290 290 290 289 288 287 287 286 285 284 283 280 280 280 280 279 280 280 279 279 279 280 280 281 281 281 282 282 282 282
Wind_Speed
23 14 8 7 4 5 6 5 3 3 4 8 11 10 7 12 17 17 19 23 25 28 30 33 33 34 35 36 36 38 37 37 36 35 34 28 21 23 20 18 19 22 19 29
7 14 7 5 7 9 8 3 5 3 5 10 9 9 6 10 12 16 16 21 25 27 31 34 35 35 34 34 36 37 37 38 37 35 34 33 29 24 23 22 23 20 23 23
11 4 7 6 10 8 3 6 4 2 6 7 10 4 4 6 12 14 18 19 21 24 27 30 33 35 34 34 35 35 37 37 38 38 34 32 31 28 25 21 25 24 24 23
8 10 6 7 6 3 1 4 2 3 3 4 2 2 4 4 3 9 12 16 20 21 23 26 29 32 32 33 33 34 35 36 37 38 39 39 38 38 36 31 29 29 27 27
1 5 7 7 3 5 4 9 2 2 3 4 5 4 2 4 2 3 9 14 18 18 19 23 25 27 28 30 34 34 34 34 35 36 37 38 39 38 36 37 34 29 28 25
4 3 4 3 5 4 12 3 6 4 2 3 4 4 3 4 4 3 5 10 15 17 18 21 22 23 27 30 34 37 38 35 34 35 36 37 37 39 40 40 39 38 33 32
6 4 4 7 5 7 9 6 3 5 4 4 2 4 6 5 4 7 4 8 15 19 20 23 26 24 28 31 35 37 38 38 35 34 33 35 36 36 38 39 42 41 40 38
4 5 8 12 3 2 5 4 4 4 2 5 7 4 4 6 8 6 5 9 13 15 16 18 21 22 26 29 33 35 37 35 33 33 33 33 34 35 35 37 38 40 41 40
3 1 4 4 4 2 5 6 4 6 1 3 3 5 1 3 3 2 5 8 13 16 20 22 20 19 21 28 31 32 34 33 32 32 33 34 34 35 35 35 36 38 39 41
2 3 2 4 3 7 6 1 3 4 2 4 4 5 4 6 6 3 3 7 14 21 26 27 18 19 21 27 26 28 31 31 31 32 32 34 34 34 35 35 36 38 39 41
3 3 3 1 5 1 4 2 5 4 3 4 2 6 6 6 6 6 3 13 26 31 31 26 14 18 25 25 24 26 32 33 32 32 32 33 34 35 35 36 36 37 38 39
1 4 2 2 6 5 1 3 3 4 5 2 2 6 4 1 4 2 17 34 37 32 30 17 15 22 24 22 25 32 35 36 34 33 32 33 34 36 36 37 37 38 39 38
3 1 3 6 5 4 1 2 4 4 3 5 5 6 2 11 13 28 28 33 36 37 30 14 18 21 22 23 29 33 33 35 34 33 33 34 35 37 36 37 39 39 40 39
4 1 6 6 5 3 2 3 3 6 3 3 9 9 20 18 19 27 32 37 37 36 21 16 18 18 19 24 32 35 34 32 34 33 34 35 36 37 36 37 38 40 40 39
5 3 1 4 6 4 9 13 12 12 9 6 15 14 19 16 21 28 34 35 32 27 17 18 15 18 23 31 39 35 31 33 35 36 35 37 37 36 36 37 38 39 40 38
4 2 2 5 4 5 12 18 16 16 16 15 22 24 34 35 30 24 30 28 25 23 20 14 19 25 31 39 40 32 32 33 37 35 35 37 38 36 35 36 38 39 39 38
6 4 3 5 4 6 8 10 13 6 7 7 8 11 15 9 18 22 24 25 27 23 19 22 25 31 36 40 32 32 31 37 37 34 35 38 38 36 35 35 37 39 39 38
5 5 3 4 4 1 6 3 5 12 7 15 12 13 23 27 31 27 20 23 26 25 26 32 36 39 39 31 31 32 35 37 33 34 36 38 38 36 34 34 36 38 38 37
9 4 1 2 3 7 9 7 7 9 9 24 15 23 29 33 23 22 21 22 26 27 31 36 38 40 34 30 32 36 37 33 34 34 37 39 37 34 33 34 35 36 37 36
4 3 4 2 3 7 6 3 5 5 9 21 25 24 24 20 5 11 27 30 29 30 32 35 36 34 29 34 33 35 34 34 34 35 39 39 34 31 31 33 34 35 35 36
4 3 14 10 7 8 13 14 6 4 11 10 13 18 22 10 25 32 33 39 30 32 32 34 32 30 33 36 33 36 35 33 35 38 40 37 31 29 28 30 31 32 34 35
8 8 4 2 3 10 20 6 8 17 17 20 27 29 28 31 32 37 40 36 34 30 35 31 28 30 34 33 35 35 33 36 39 40 38 33 30 27 27 29 29 30 31 33
2 8 6 12 9 11 18 22 24 28 30 35 32 40 40 36 39 41 39 38 31 32 31 25 27 30 32 34 33 35 38 40 39 37 35 32 28 26 26 28 29 30 30 31
5 15 5 2 13 34 25 39 43 46 45 44 43 41 39 39 32 36 37 35 33 33 27 26 28 30 32 29 30 33 35 35 35 34 31 28 28 28 27 26 27 29 29 31
11 12 10 16 28 36 36 43 48 43 40 39 37 35 36 29 36 39 34 32 31 32 29 28 29 29 26 25 27 30 32 32 32 31 29 28 27 28 30 28 28 29 28 26
20 16 8 15 33 26 36 43 41 37 37 35 35 36 38 38 36 32 29 29 30 29 28 27 25 22 21 23 26 29 32 31 31 31 30 29 29 30 30 31 32 28 28 26
Wind_Direction
43 60 33 334 346 95 101 82 55 358 52 75 97 96 79 65 65 59 51 45 41 36 30 25 22 19 18 18 17 17 13 13 10 6 1 357 351 310 306 296 287 265 274 276
44 48 331 359 32 66 52 66 3 296 345 101 108 91 78 68 67 60 52 44 37 31 28 23 20 20 20 17 17 16 15 13 10 7 6 2 354 348 336 311 299 288 264 269
74 314 347 40 35 26 46 80 331 240 7 68 119 116 104 71 72 61 53 48 40 34 28 23 19 21 21 21 18 15 14 13 12 8 3 357 353 352 338 321 298 287 287 287
67 2 26 32 58 358 312 102 270 270 82 169 152 240 200 147 83 55 48 41 37 33 29 24 18 19 20 21 17 15 11 9 8 7 5 6 3 357 354 342 330 317 309 279
66 5 12 34 344 331 267 322 213 178 94 74 343 71 262 176 59 33 42 40 36 32 27 21 16 11 10 8 8 6 5 4 3 3 4 2 1 358 352 348 340 326 318 304
75 26 42 309 299 318 304 23 46 52 66 33 262 119 224 203 176 140 56 44 30 27 19 16 10 4 0 358 356 356 356 357 356 356 357 359 358 355 352 350 345 340 330 324
346 20 345 6 359 348 15 43 1 3 11 212 26 35 243 164 179 130 84 27 19 12 7 5 2 357 354 353 351 350 348 349 349 350 350 351 352 352 351 351 349 344 339 332
35 354 12 347 61 299 356 90 132 201 317 288 335 261 290 185 123 103 42 21 11 359 351 349 355 352 347 346 344 345 346 347 348 346 345 344 345 346 346 346 345 344 342 339
44 319 332 12 4 47 317 41 145 103 80 29 277 289 311 189 140 47 4 6 359 349 342 335 342 345 340 338 341 340 343 343 345 345 342 341 340 340 340 340 340 340 340 338
196 28 2 310 355 27 80 91 37 14 54 304 293 275 245 223 222 246 313 340 339 337 336 330 319 329 328 333 334 336 342 343 344 343 341 340 338 337 336 335 335 335 335 336
107 94 290 22 30 317 353 33 57 110 126 173 289 270 217 214 211 224 270 323 318 318 319 323 301 320 326 333 330 337 341 342 340 339 339 338 337 335 334 333 332 331 331 332
140 140 228 207 294 275 140 171 110 112 270 223 158 270 293 51 267 248 308 312 317 315 316 309 306 318 328 335 338 336 332 334 335 335 335 334 334 332 331 330 329 328 326 327
190 329 5 349 354 353 119 198 120 103 71 215 141 262 260 293 295 314 312 309 317 319 319 288 307 317 326 330 332 328 326 328 328 329 330 330 330 330 330 330 330 329 324 322
113 133 173 199 197 134 259 227 155 130 139 204 227 272 279 294 293 299 302 308 311 315 303 286 300 310 320 324 331 329 324 327 327 327 327 327 327 327 326 327 327 327 326 321
136 193 203 259 250 213 246 255 240 212 224 205 272 261 271 274 281 288 294 301 305 308 282 291 305 316 320 326 327 324 320 324 324 324 323 324 323 323 321 322 325 325 325 322
165 260 85 302 329 267 261 258 246 242 246 247 252 268 266 270 280 281 297 308 311 301 275 282 303 313 319 323 323 316 318 321 321 320 320 321 321 321 319 320 321 322 323 323
154 131 78 270 344 340 299 244 223 179 200 190 209 242 275 269 279 286 299 308 310 301 268 290 305 315 321 321 315 312 312 317 316 315 318 320 320 319 318 319 320 320 322 321
136 112 120 255 18 332 247 253 190 208 221 226 253 263 265 268 278 282 284 296 302 296 288 299 304 314 317 313 310 308 311 313 310 313 315 318 319 317 318 320 319 319 321 321
174 136 285 191 200 305 284 270 173 185 243 245 251 259 265 272 279 275 280 301 300 291 295 300 302 310 309 306 310 307 309 308 309 312 315 317 317 316 318 320 320 319 320 320
123 137 168 85 198 233 243 224 152 121 280 241 248 253 260 272 250 257 291 302 299 296 297 300 302 305 299 304 309 306 308 305 303 308 313 315 314 313 316 318 320 319 319 320
134 192 220 223 248 278 250 240 124 105 260 278 244 261 265 229 257 280 294 301 299 302 306 303 300 297 303 307 304 306 303 298 301 306 310 311 311 312 315 317 321 319 321 320
165 160 195 133 205 278 224 129 185 229 271 271 283 287 280 282 286 286 294 298 301 298 307 299 292 299 306 304 306 303 299 299 302 306 308 308 309 312 314 316 320 323 326 324
264 190 183 196 205 234 200 221 255 270 269 280 282 291 294 290 295 300 296 297 297 301 300 287 291 300 302 303 302 300 301 302 303 305 306 306 306 309 312 314 318 320 325 327
246 220 231 172 229 256 246 264 275 279 278 282 285 288 288 288 290 294 294 296 295 299 291 289 295 300 303 303 306 307 308 307 306 305 305 306 307 309 311 313 315 317 323 323
213 167 227 251 260 269 271 267 270 276 280 277 283 286 284 281 292 295 292 293 292 292 287 291 297 300 303 308 313 314 313 311 309 308 308 308 308 310 311 313 314 315 318 320
219 231 224 254 262 255 269 275 281 281 281 286 287 290 286 287 291 290 287 288 287 284 285 290 296 297 306 315 320 320 317 314 310 308 308 309 309 311 313 314 312 311 312 314